| time (UTC) | temp F | wind direction | speed MPH | gust MPH | rain 1hr in | rain 24hr in | rain mn in | humidity % | barometer mb |
| 20260906122555 | 67 | 248 | 2.0 | 2.0 | 0.00 | 0.00 | 0.00 | 60 | 1029.2 |
| 20260906121553 | 67 | 282 | 2.0 | 4.0 | 0.00 | 0.00 | 0.00 | 61 | 1030.6 |
| 20260906120551 | 66 | 113 | 1.0 | 4.0 | 0.00 | 0.00 | 0.00 | 60 | 1029.4 |
| 20260906115549 | 66 | 255 | 1.0 | 4.0 | 0.00 | 0.00 | 0.00 | 60 | 1029.4 |
| 20260906114547 | 66 | 315 | 2.0 | 4.0 | 0.00 | 0.00 | 0.00 | 62 | 1029.6 |
| 20260906113545 | 66 | 101 | 1.0 | 4.0 | 0.00 | 0.00 | 0.00 | 63 | 1029.7 |
| 20260906112543 | 66 | 109 | 1.0 | 4.0 | 0.00 | 0.00 | 0.00 | 61 | 1029.7 |
| 20260906111541 | 65 | 315 | 2.0 | 4.0 | 0.00 | 0.00 | 0.00 | 62 | 1031.6 |
| 20260906110539 | 65 | 270 | 2.0 | 4.0 | 0.00 | 0.00 | 0.00 | 60 | 1029.6 |
| 20260906105537 | 65 | 252 | 2.0 | 4.0 | 0.00 | 0.00 | 0.00 | 60 | 1029.7 |
| 20260906104535 | 65 | 293 | 3.0 | 6.0 | 0.00 | 0.00 | 0.00 | 61 | 1029.7 |
| 20260906103533 | 65 | 293 | 2.0 | 4.0 | 0.00 | 0.00 | 0.00 | 61 | 1029.8 |
| 20260906102531 | 63 | 0.0 | 2.0 | 0.00 | 0.00 | 0.00 | 63 | 1029.7 | |
| 20260906101528 | 63 | 105 | 1.0 | 2.0 | 0.00 | 0.00 | 0.00 | 64 | 1029.7 |
| 20260906100526 | 62 | 113 | 2.0 | 4.0 | 0.00 | 0.00 | 0.00 | 66 | 1029.7 |
| 20260906095525 | 62 | 0.0 | 2.0 | 0.00 | 0.00 | 0.00 | 70 | 1030.5 | |
| 20260906094523 | 62 | 113 | 0.0 | 4.0 | 0.00 | 0.00 | 0.00 | 70 | 1029.9 |
| 20260906093520 | 62 | 113 | 1.0 | 4.0 | 0.00 | 0.00 | 0.00 | 70 | 1031.8 |
| 20260906092518 | 62 | 68 | 1.0 | 2.0 | 0.00 | 0.00 | 0.00 | 70 | 1029.9 |
| 20260906091516 | 62 | 68 | 1.0 | 2.0 | 0.00 | 0.00 | 0.00 | 70 | 1033.2 |
| 20260906090514 | 0 | 0.0 | 0.0 | 0.00 | 0.00 | 0.00 | 1033.9 | ||
| 20260906085613 | 0 | 0.0 | 0.0 | 0.00 | 0.00 | 0.00 | 1033.9 | ||
| 20260906084610 | 60 | 270 | 2.0 | 2.0 | 0.00 | 0.00 | 0.00 | 74 | 1029.9 |
| 20260906083608 | 60 | 270 | 2.0 | 2.0 | 0.00 | 0.00 | 0.00 | 73 | 1029.9 |
| 20260906082606 | 60 | 293 | 1.0 | 2.0 | 0.00 | 0.00 | 0.00 | 75 | 1029.9 |
| 20260906081605 | 59 | 0.0 | 2.0 | 0.00 | 0.00 | 0.00 | 78 | 1029.8 | |
| 20260906080603 | 58 | 270 | 0.0 | 4.0 | 0.00 | 0.00 | 0.00 | 79 | 1029.8 |
| 20260906075600 | 57 | 270 | 1.0 | 4.0 | 0.00 | 0.00 | 0.00 | 82 | 1029.7 |
| 20260906074559 | 56 | 293 | 0.0 | 4.0 | 0.00 | 0.00 | 0.00 | 84 | 1029.4 |
| 20260906073617 | 55 | 90 | 0.0 | 2.0 | 0.00 | 0.00 | 0.00 | 86 | 1029.2 |
| 20260906072554 | 54 | 0.0 | 2.0 | 0.00 | 0.00 | 0.00 | 87 | 1029.2 | |
| 20260906071552 | 54 | 113 | 0.0 | 4.0 | 0.00 | 0.00 | 0.00 | 88 | 1029.1 |
| 20260906070550 | 53 | 113 | 1.0 | 4.0 | 0.00 | 0.00 | 0.00 | 89 | 1028.9 |
| 20260906065548 | 52 | 70 | 1.0 | 2.0 | 0.00 | 0.00 | 0.00 | 92 | 1029.0 |
| 20260906064546 | 51 | 0.0 | 2.0 | 0.00 | 0.00 | 0.00 | 93 | 1028.9 | |
| 20260906063604 | 50 | 113 | 0.0 | 2.0 | 0.00 | 0.00 | 0.00 | 94 | 1029.0 |
| 20260906062542 | 50 | 0.0 | 2.0 | 0.00 | 0.00 | 0.00 | 94 | 1028.8 | |
| 20260906061620 | 49 | 68 | 0.0 | 2.0 | 0.00 | 0.00 | 0.00 | 95 | 1029.0 |
| 20260906060538 | 48 | 101 | 2.0 | 4.0 | 0.00 | 0.00 | 0.00 | 95 | 1028.8 |
| 20260906055536 | 48 | 68 | 0.0 | 2.0 | 0.00 | 0.00 | 0.00 | 95 | 1028.7 |
| 20260906054614 | 48 | 56 | 0.0 | 4.0 | 0.00 | 0.00 | 0.00 | 95 | 1028.5 |
| 20260906053532 | 47 | 45 | 0.0 | 2.0 | 0.00 | 0.00 | 0.00 | 95 | 1028.2 |
| 20260906052530 | 48 | 0.0 | 2.0 | 0.00 | 0.00 | 0.00 | 95 | 1028.5 | |
| 20260906051528 | 48 | 0.0 | 2.0 | 0.00 | 0.00 | 0.00 | 95 | 1028.3 | |
| 20260906050526 | 48 | 70 | 1.0 | 2.0 | 0.00 | 0.00 | 0.00 | 96 | 1028.2 |
| 20260906045524 | 48 | 0.0 | 2.0 | 0.00 | 0.00 | 0.00 | 95 | 1028.3 | |
| 20260906044522 | 48 | 90 | 0.0 | 2.0 | 0.00 | 0.00 | 0.00 | 95 | 1030.4 |
| 20260906043520 | 0 | 0.0 | 0.0 | 0.00 | 0.00 | 0.00 | 1032.7 | ||
| 20260906042518 | 48 | 0.0 | 0.0 | 0.00 | 0.00 | 0.00 | 95 | 1028.0 | |
| 20260906041516 | 48 | 0.0 | 0.0 | 0.00 | 0.00 | 0.00 | 94 | 1027.9 | |
| 20260906040614 | 48 | 113 | 0.0 | 2.0 | 0.00 | 0.00 | 0.00 | 94 | 1027.9 |
| 20260906035612 | 49 | 0.0 | 0.0 | 0.00 | 0.00 | 0.00 | 94 | 1028.0 | |
| 20260906034610 | 0 | 0.0 | 0.0 | 0.00 | 0.00 | 0.00 | 1032.7 | ||
| 20260906033608 | 49 | 0.0 | 0.0 | 0.00 | 0.00 | 0.00 | 92 | 1031.9 | |
| 20260906032626 | 49 | 0.0 | 0.0 | 0.00 | 0.00 | 0.00 | 92 | 1028.2 | |
| 20260906031604 | 50 | 0.0 | 0.0 | 0.00 | 0.00 | 0.00 | 92 | 1028.1 | |
| 20260906030602 | 50 | 0.0 | 2.0 | 0.00 | 0.00 | 0.00 | 91 | 1028.0 | |
| 20260906025600 | 51 | 113 | 0.0 | 2.0 | 0.00 | 0.00 | 0.00 | 91 | 1028.1 |
| 20260906024558 | 51 | 0.0 | 0.0 | 0.00 | 0.00 | 0.00 | 91 | 1028.1 | |
| 20260906023556 | 51 | 113 | 0.0 | 2.0 | 0.00 | 0.00 | 0.00 | 91 | 1028.0 |
| 20260906022554 | 51 | 0.0 | 2.0 | 0.00 | 0.00 | 0.00 | 91 | 1028.1 | |
| 20260906021552 | 51 | 113 | 0.0 | 2.0 | 0.00 | 0.00 | 0.00 | 90 | 1028.0 |
| 20260906020550 | 51 | 113 | 0.0 | 2.0 | 0.00 | 0.00 | 0.00 | 90 | 1028.0 |
| 20260906015548 | 51 | 0.0 | 2.0 | 0.00 | 0.00 | 0.00 | 89 | 1027.9 | |
| 20260906014546 | 52 | 113 | 0.0 | 2.0 | 0.00 | 0.00 | 0.00 | 89 | 1027.7 |
| 20260906013544 | 52 | 0.0 | 2.0 | 0.00 | 0.00 | 0.00 | 89 | 1027.6 | |
| 20260906012542 | 52 | 113 | 0.0 | 2.0 | 0.00 | 0.00 | 0.00 | 88 | 1027.6 |
| 20260906011620 | 53 | 135 | 1.0 | 2.0 | 0.00 | 0.00 | 0.00 | 87 | 1027.3 |
| 20260906010538 | 0 | 0.0 | 0.0 | 0.00 | 0.00 | 0.00 | 1031.9 | ||
| 20260906005536 | 53 | 0.0 | 0.0 | 0.00 | 0.00 | 0.00 | 87 | 1027.3 | |
| 20260906004534 | 53 | 180 | 0.0 | 2.0 | 0.00 | 0.00 | 0.00 | 87 | 1027.3 |
| 20260906003532 | 53 | 0.0 | 2.0 | 0.00 | 0.00 | 0.00 | 86 | 1027.2 | |
| 20260906002530 | 53 | 0.0 | 0.0 | 0.00 | 0.00 | 0.00 | 85 | 1027.3 | |
| 20260906001528 | 0 | 0.0 | 0.0 | 0.00 | 0.00 | 0.00 | 1031.6 | ||
| 20260906000526 | 0 | 0.0 | 0.0 | 0.00 | 0.00 | 0.00 | 1031.6 | ||
| 20260905235524 | 55 | 0.0 | 2.0 | 0.00 | 0.00 | 0.00 | 83 | 1028.7 | |
| 20260905234602 | 55 | 0.0 | 2.0 | 0.00 | 0.00 | 0.00 | 83 | 1027.2 | |
| 20260905233520 | 55 | 158 | 0.0 | 2.0 | 0.00 | 0.00 | 0.00 | 82 | 1027.0 |
| 20260905232518 | 55 | 248 | 1.0 | 4.0 | 0.00 | 0.00 | 0.00 | 81 | 1026.9 |
| 20260905231516 | 56 | 257 | 2.0 | 6.0 | 0.00 | 0.00 | 0.00 | 81 | 1026.9 |
| 20260905230614 | 55 | 256 | 3.0 | 6.0 | 0.00 | 0.00 | 0.00 | 82 | 1026.9 |
| 20260905225632 | 0 | 0.0 | 0.0 | 0.00 | 0.00 | 0.00 | 1031.0 | ||
| 20260905224610 | 0 | 0.0 | 0.0 | 0.00 | 0.00 | 0.00 | 1031.1 | ||
| 20260905223608 | 0 | 0.0 | 0.0 | 0.00 | 0.00 | 0.00 | 1031.1 | ||
| 20260905222626 | 0 | 0.0 | 0.0 | 0.00 | 0.00 | 0.00 | 1030.9 | ||
| 20260905221604 | 0 | 0.0 | 0.0 | 0.00 | 0.00 | 0.00 | 1030.9 | ||
| 20260905220602 | 57 | 270 | 3.0 | 4.0 | 0.00 | 0.00 | 0.00 | 78 | 1026.8 |
| 20260905215600 | 57 | 267 | 2.0 | 4.0 | 0.00 | 0.00 | 0.00 | 78 | 1026.8 |
| 20260905214558 | 58 | 248 | 3.0 | 4.0 | 0.00 | 0.00 | 0.00 | 77 | 1026.6 |
| 20260905213556 | 58 | 248 | 2.0 | 2.0 | 0.00 | 0.00 | 0.00 | 78 | 1026.6 |
| 20260905212554 | 57 | 252 | 2.0 | 4.0 | 0.00 | 0.00 | 0.00 | 80 | 1027.1 |
| 20260905211552 | 57 | 248 | 1.0 | 4.0 | 0.00 | 0.00 | 0.00 | 80 | 1027.8 |
| 20260905210550 | 0 | 0.0 | 0.0 | 0.00 | 0.00 | 0.00 | 1030.4 | ||
| 20260905205548 | 0 | 0.0 | 0.0 | 0.00 | 0.00 | 0.00 | 1030.3 | ||
| 20260905204546 | 0 | 0.0 | 0.0 | 0.00 | 0.00 | 0.00 | 1030.2 | ||
| 20260905203604 | 59 | 270 | 2.0 | 2.0 | 0.00 | 0.00 | 0.00 | 76 | 1026.1 |
| 20260905202541 | 59 | 253 | 2.0 | 4.0 | 0.00 | 0.00 | 0.00 | 76 | 1027.3 |
| 20260905201539 | 60 | 248 | 2.0 | 6.0 | 0.00 | 0.00 | 0.00 | 74 | 1028.0 |
| 20260905200557 | 60 | 255 | 2.0 | 6.0 | 0.00 | 0.00 | 0.00 | 74 | 1025.9 |
| 20260905195535 | 60 | 261 | 2.0 | 4.0 | 0.00 | 0.00 | 0.00 | 74 | 1025.8 |
| 20260905194533 | 61 | 248 | 2.0 | 2.0 | 0.00 | 0.00 | 0.00 | 72 | 1025.9 |
| 20260905193531 | 61 | 263 | 2.0 | 4.0 | 0.00 | 0.00 | 0.00 | 71 | 1025.7 |
| 20260905192529 | 61 | 248 | 3.0 | 4.0 | 0.00 | 0.00 | 0.00 | 71 | 1025.6 |
| 20260905191527 | 61 | 263 | 2.0 | 4.0 | 0.00 | 0.00 | 0.00 | 72 | 1025.5 |
| 20260905190525 | 61 | 270 | 0.0 | 2.0 | 0.00 | 0.00 | 0.00 | 72 | 1025.3 |
| 20260905185523 | 61 | 254 | 1.0 | 4.0 | 0.00 | 0.00 | 0.00 | 71 | 1025.4 |
| 20260905184521 | 62 | 273 | 3.0 | 6.0 | 0.00 | 0.00 | 0.00 | 70 | 1025.2 |
| 20260905183519 | 0 | 0.0 | 0.0 | 0.00 | 0.00 | 0.00 | 1029.1 | ||
| 20260905182517 | 0 | 0.0 | 0.0 | 0.00 | 0.00 | 0.00 | 1028.9 | ||
| 20260905181515 | 0 | 0.0 | 0.0 | 0.00 | 0.00 | 0.00 | 1028.7 | ||
| 20260905180613 | 0 | 0.0 | 0.0 | 0.00 | 0.00 | 0.00 | 1028.6 | ||
| 20260905175611 | 63 | 270 | 3.0 | 4.0 | 0.00 | 0.00 | 0.00 | 69 | 1024.6 |
| 20260905174609 | 64 | 270 | 4.0 | 8.0 | 0.00 | 0.00 | 0.00 | 67 | 1024.6 |
| 20260905173607 | 64 | 248 | 4.0 | 7.0 | 0.00 | 0.00 | 0.00 | 67 | 1024.6 |
| 20260905172605 | 64 | 248 | 3.0 | 8.0 | 0.00 | 0.00 | 0.00 | 66 | 1024.5 |
| 20260905171603 | 64 | 270 | 2.0 | 4.0 | 0.00 | 0.00 | 0.00 | 66 | 1024.3 |
| 20260905170601 | 65 | 254 | 4.0 | 6.0 | 0.00 | 0.00 | 0.00 | 65 | 1024.1 |
| 20260905165559 | 65 | 270 | 5.0 | 9.0 | 0.00 | 0.01 | 0.00 | 64 | 1024.1 |
| 20260905164557 | 65 | 317 | 3.0 | 7.0 | 0.00 | 0.04 | 0.00 | 66 | 1023.9 |
| 20260905163555 | 65 | 257 | 2.0 | 7.0 | 0.00 | 0.09 | 0.00 | 67 | 1023.9 |
| 20260905162553 | 65 | 241 | 4.0 | 6.0 | 0.00 | 0.13 | 0.00 | 67 | 1023.7 |
| 20260905161551 | 66 | 260 | 4.0 | 7.0 | 0.00 | 0.20 | 0.00 | 67 | 1023.5 |
| 20260905160549 | 66 | 271 | 4.0 | 11.0 | 0.00 | 0.25 | 0.00 | 67 | 1023.3 |
| 20260905155547 | 66 | 267 | 6.0 | 11.0 | 0.00 | 0.32 | 0.00 | 67 | 1023.2 |
| 20260905154545 | 66 | 230 | 5.0 | 11.0 | 0.00 | 0.40 | 0.00 | 66 | 1023.1 |
| 20260905153543 | 66 | 263 | 5.0 | 11.0 | 0.00 | 0.40 | 0.00 | 67 | 1023.1 |
| 20260905152541 | 66 | 246 | 4.0 | 8.0 | 0.00 | 0.41 | 0.00 | 67 | 1023.0 |
| 20260905151539 | 66 | 270 | 5.0 | 9.0 | 0.00 | 0.44 | 0.00 | 67 | 1022.9 |
| 20260905150537 | 66 | 281 | 4.0 | 11.0 | 0.00 | 0.45 | 0.00 | 67 | 1022.7 |
| 20260905145535 | 66 | 241 | 7.0 | 17.0 | 0.00 | 0.48 | 0.00 | 66 | 1022.6 |
| 20260905144533 | 67 | 258 | 8.0 | 16.0 | 0.00 | 0.50 | 0.00 | 64 | 1022.5 |
| 20260905143530 | 66 | 260 | 7.0 | 14.0 | 0.00 | 0.50 | 0.00 | 66 | 1022.4 |
| 20260905142528 | 66 | 270 | 7.0 | 14.0 | 0.00 | 0.51 | 0.00 | 66 | 1022.3 |
| 20260905141526 | 66 | 274 | 4.0 | 7.0 | 0.00 | 0.51 | 0.00 | 67 | 1022.4 |
| 20260905140525 | 66 | 287 | 7.0 | 11.0 | 0.00 | 0.51 | 0.00 | 66 | 1022.3 |
| 20260905135523 | 66 | 270 | 5.0 | 11.0 | 0.00 | 0.51 | 0.00 | 66 | 1022.2 |
| 20260905134520 | 67 | 236 | 7.0 | 16.0 | 0.00 | 0.51 | 0.00 | 66 | 1022.0 |
| 20260905133519 | 67 | 283 | 6.0 | 13.0 | 0.00 | 0.51 | 0.00 | 65 | 1021.9 |
| 20260905132516 | 68 | 243 | 9.0 | 17.0 | 0.00 | 0.51 | 0.00 | 63 | 1021.9 |
| 20260905131615 | 67 | 274 | 6.0 | 11.0 | 0.00 | 0.51 | 0.00 | 65 | 1021.7 |
| 20260905130632 | 67 | 264 | 6.0 | 11.0 | 0.00 | 0.51 | 0.00 | 64 | 1021.7 |
| 20260905125610 | 68 | 290 | 7.0 | 17.0 | 0.00 | 0.51 | 0.00 | 62 | 1021.6 |
| 20260905124608 | 68 | 305 | 7.0 | 14.0 | 0.00 | 0.51 | 0.00 | 63 | 1021.6 |
| 20260905123606 | 67 | 266 | 6.0 | 11.0 | 0.00 | 0.51 | 0.00 | 64 | 1021.2 |